Theta_e
300 299 299 298 298 298 298 298 297 298 298 297 297 297 298 299 299 301 299 302 296 292 293 294 294 291 291 291 287 291 291 292 290 286 285 284 285 287 286 288 286 286 284 285 286 283 279 286 292 285 285 287 288 288
299 299 298 298 298 298 298 297 297 298 298 298 297 297 297 298 299 301 295 300 298 295 294 299 299 299 297 296 292 293 289 290 291 287 286 286 286 289 286 283 291 284 286 284 283 281 285 286 285 287 289 287 287 288
298 298 297 298 298 297 297 296 297 297 298 298 297 296 296 298 299 299 296 297 294 289 292 294 295 300 302 301 301 291 294 294 293 296 289 288 285 290 283 285 287 289 292 286 284 284 285 287 288 288 288 287 287 288
297 298 298 297 297 297 297 297 296 297 297 297 296 295 296 297 299 299 295 297 294 292 287 292 300 297 301 300 300 299 297 298 297 295 290 288 287 292 287 288 287 289 289 284 284 285 286 286 286 287 286 287 288 288
296 297 297 297 297 297 297 297 297 297 297 297 295 296 297 298 299 301 301 299 298 293 288 292 298 299 300 299 297 298 296 294 293 290 290 289 291 290 293 291 285 289 284 284 282 285 285 284 286 287 286 285 286 286
296 296 296 297 297 297 296 297 297 297 297 296 295 295 297 297 299 296 286 297 299 298 289 288 297 296 298 298 296 295 296 294 293 290 291 293 294 291 286 285 286 287 287 287 284 286 286 286 286 286 284 284 285 284
295 296 296 296 296 296 296 296 296 296 297 296 295 296 297 298 298 293 292 297 299 298 289 287 290 293 296 296 297 295 295 294 294 291 291 291 293 292 289 285 285 286 285 286 287 287 284 286 283 285 285 285 284 284
294 295 296 296 296 296 296 296 296 297 296 295 295 296 297 299 299 294 303 301 300 293 291 286 288 290 295 290 289 294 290 291 292 291 293 290 292 290 283 286 286 285 286 285 286 286 285 284 284 283 285 284 283 281
294 294 295 296 296 296 296 296 296 296 296 295 295 297 297 294 289 295 300 300 301 295 287 287 286 284 295 291 292 292 291 286 294 288 287 291 287 284 285 286 286 286 285 285 285 284 283 282 281 281 282 281 280 279
293 293 295 295 296 296 295 296 295 296 296 295 295 290 285 291 300 299 293 289 290 289 291 286 293 286 291 289 288 288 291 286 284 286 291 286 286 286 287 288 287 285 285 285 283 282 282 280 280 279 279 279 279 278
292 293 294 294 295 295 295 295 295 295 295 293 287 288 296 300 295 291 285 285 286 283 288 290 292 288 295 287 287 291 287 288 281 286 284 283 283 282 285 284 285 284 284 284 285 283 283 282 281 279 278 278 277 276
291 292 293 294 295 295 295 295 295 295 293 292 294 296 293 290 289 285 285 287 285 284 290 286 290 292 292 295 289 289 285 286 279 290 284 281 280 282 282 282 283 283 283 282 282 281 280 280 280 279 277 276 275 274
291 292 293 294 295 295 295 295 294 296 295 294 290 288 286 286 282 281 279 282 284 290 289 290 287 291 292 293 289 286 281 282 291 283 282 282 281 282 281 282 281 281 281 280 280 280 279 278 278 277 275 275 274 272
291 292 293 294 294 295 295 295 295 295 291 287 284 282 282 281 285 287 287 290 293 292 291 290 287 288 288 286 288 282 287 287 281 280 281 281 280 280 281 280 279 277 277 277 277 276 274 273 271 271 271 271 270 269
292 293 293 294 294 294 295 295 295 294 289 285 285 282 283 289 289 289 291 293 294 295 294 289 288 288 286 284 285 285 281 280 282 283 282 282 280 279 278 278 276 274 274 274 274 272 271 271 271 270 271 271 270 269
293 293 293 294 294 294 295 295 291 289 287 284 282 282 284 286 284 286 286 287 295 295 295 292 287 284 283 286 282 281 281 281 284 284 282 281 279 279 277 276 275 275 275 274 273 273 272 271 272 272 272 271 270 270
293 290 294 294 294 295 294 288 288 285 283 281 281 284 285 288 287 287 290 289 295 293 287 289 284 283 288 283 282 287 285 283 283 281 282 281 279 277 276 275 274 274 275 275 275 274 273 274 273 273 273 272 273 272
290 293 294 295 295 292 287 288 285 283 279 282 282 282 285 285 285 285 287 291 292 290 290 287 289 283 283 282 285 284 282 283 283 281 280 279 278 276 276 275 275 276 275 275 275 274 274 273 274 275 274 274 273 273
292 294 294 295 292 290 285 284 286 280 281 282 283 284 284 284 285 287 287 288 292 293 290 288 285 285 286 285 284 283 282 281 279 279 279 278 278 276 276 276 276 276 275 275 276 277 277 276 276 277 277 277 275 276
293 295 294 295 294 288 283 283 290 284 281 282 283 283 284 283 284 285 285 284 287 289 286 284 285 284 284 283 286 284 284 283 280 278 277 277 277 277 276 277 278 277 277 277 277 275 277 277 277 277 276 275 274 275
292 292 293 294 290 290 285 284 283 283 283 282 283 284 282 284 284 285 284 286 286 286 284 284 282 280 282 284 285 284 283 283 282 281 279 277 279 279 279 279 279 279 278 278 278 277 275 277 277 277 276 275 275 274
293 293 293 292 287 286 285 288 285 286 283 282 283 284 282 282 282 283 285 284 284 283 284 284 281 280 280 280 282 284 284 284 283 282 281 279 279 278 279 279 279 278 278 278 278 278 277 277 276 276 275 275 271 274
293 293 290 288 284 283 280 288 282 283 280 280 283 281 281 282 283 283 282 283 281 282 282 282 281 282 281 281 280 280 281 281 281 280 279 281 281 281 280 280 280 278 278 278 278 278 277 270 273 273 274 273 273 273
289 285 283 282 283 278 283 281 283 281 281 280 280 277 279 281 282 281 281 282 280 280 280 279 280 279 279 279 279 279 281 282 280 281 281 280 279 278 279 279 279 279 279 278 277 276 275 275 271 273 273 272 272 271
283 278 281 277 281 280 278 279 279 279 277 278 277 277 279 281 280 280 279 279 278 280 280 280 281 281 280 280 279 279 280 281 279 278 279 280 279 277 277 277 277 276 277 276 275 275 274 274 273 272 272 271 270 270
276 276 278 278 279 279 280 277 278 278 278 277 277 280 281 280 278 278 279 279 279 279 280 281 281 280 280 280 278 278 279 281 280 277 277 278 278 277 276 274 274 274 276 277 276 274 273 273 272 271 270 270 266 267
276 276 277 279 280 281 280 280 281 280 277 276 278 277 278 276 277 276 277 279 279 280 282 283 283 281 280 279 279 279 280 280 279 278 277 276 276 276 278 276 274 274 275 274 274 273 272 271 271 270 270 271 270 269
276 277 275 276 276 279 275 276 275 274 275 278 279 275 275 275 274 274 276 279 282 281 281 281 282 282 280 279 278 277 275 274 274 274 274 273 274 273 273 273 272 271 272 271 271 271 271 271 271 270 269 269 269 269
276 277 276 269 273 273 273 273 274 274 274 277 276 273 272 272 273 274 275 279 280 278 277 276 276 278 277 278 277 277 276 276 273 270 271 271 270 270 272 271 271 271 271 270 268 269 268 269 268 268 267 268 268 268
273 277 274 270 270 270 271 273 272 273 274 275 275 273 272 272 273 276 277 278 279 278 278 277 276 276 274 274 273 273 275 275 275 275 273 272 273 271 271 270 270 270 271 272 271 269 265 268 268 268 267 267 268 267
276 277 273 273 271 272 272 274 275 275 275 274 276 274 272 272 273 274 275 276 278 277 277 276 276 276 275 273 273 272 270 272 271 272 273 273 271 271 271 270 270 271 270 270 269 269 268 268 268 267 267 266 265 264
275 273 272 270 270 272 274 275 275 274 274 274 272 274 273 274 271 272 272 275 277 276 274 276 275 274 276 275 274 273 273 271 271 271 271 271 271 269 269 268 268 269 268 268 268 267 265 265 266 266 266 265 265 263
273 273 273 272 271 271 272 274 272 271 273 272 271 272 271 272 269 270 273 273 275 275 274 274 273 273 272 271 271 271 270 269 268 267 267 267 267 267 268 268 268 267 265 267 267 266 264 264 265 264 264 263 263 262
Wind_Speed
19 21 19 17 17 16 16 13 12 15 11 11 10 7 5 3 4 8 2 6 3 3 7 8 6 7 6 6 7 11 7 8 6 7 5 5 4 6 4 7 7 8 6 5 4 2 5 19 9 8 5 7 8 10
18 20 20 17 17 15 15 13 10 14 12 13 10 8 5 5 4 11 2 5 3 4 6 10 11 13 12 12 7 5 2 6 5 4 5 4 3 3 6 1 11 4 6 5 7 4 4 8 9 8 7 7 9 9
19 22 21 18 17 17 15 14 11 11 12 14 11 9 5 7 6 6 1 3 3 2 7 8 2 3 5 8 7 7 3 5 4 6 2 3 5 5 5 6 4 3 8 4 6 5 8 8 9 10 10 9 9 10
16 20 20 19 18 17 14 15 17 17 13 14 12 8 7 8 7 6 2 4 2 1 4 1 4 2 3 4 8 10 8 4 6 5 1 4 4 5 4 5 4 5 5 4 5 7 8 9 9 8 10 10 9 8
16 17 17 18 20 19 16 14 14 14 13 15 12 9 9 8 7 7 4 6 6 4 3 3 4 3 1 2 4 8 7 7 6 4 2 3 4 5 3 2 3 6 4 3 4 3 7 6 7 8 8 8 8 9
17 15 15 17 18 18 16 14 12 14 14 15 10 9 8 7 6 1 1 4 8 3 2 4 2 3 1 3 3 6 6 5 6 1 4 4 2 3 4 2 5 6 6 6 4 7 10 8 6 7 6 7 8 9
16 16 17 16 15 17 14 13 13 14 14 12 11 10 8 7 6 4 2 2 14 5 2 3 2 2 1 3 2 3 4 2 4 3 4 4 1 2 3 3 6 6 5 6 5 6 6 4 5 4 4 5 4 7
14 13 16 18 17 15 14 13 13 13 13 10 10 8 6 10 6 3 1 16 11 4 2 3 2 4 4 3 2 1 3 3 4 3 1 6 2 2 4 7 7 6 5 5 6 7 8 5 4 3 3 3 4 7
14 13 13 14 17 16 15 13 14 14 14 10 8 4 1 2 1 3 13 12 3 1 3 3 4 3 4 3 1 3 2 4 3 2 3 4 4 4 4 7 7 8 3 7 5 6 6 5 4 4 4 5 6 6
14 14 12 13 16 16 15 14 13 13 13 9 4 2 3 4 14 14 2 2 2 2 3 4 4 3 5 3 5 3 3 3 4 5 1 3 5 5 4 6 8 5 3 3 5 6 4 4 5 5 7 7 7 7
15 14 14 14 17 18 17 14 15 15 11 5 3 3 2 17 3 2 4 4 4 4 5 5 9 5 4 4 4 3 2 2 3 3 3 4 4 6 6 7 6 6 4 5 7 7 5 5 6 6 7 7 7 8
17 16 15 15 17 19 16 16 17 12 4 4 1 4 3 2 3 5 6 5 7 6 8 6 6 3 3 2 3 3 3 2 5 3 3 4 5 8 8 7 6 6 7 8 8 9 8 8 8 8 8 8 8 8
18 17 17 16 18 19 18 18 17 11 6 2 3 3 4 4 7 7 11 5 6 6 6 7 7 4 3 3 1 3 4 5 1 4 4 4 8 8 8 8 8 8 8 9 9 9 9 10 9 9 8 7 7 7
18 17 17 18 20 19 17 19 18 10 1 2 3 6 5 6 7 5 7 7 4 7 11 9 5 3 2 5 2 5 3 3 4 4 2 6 10 9 8 8 8 8 7 9 9 9 9 9 8 8 7 5 5 5
19 18 18 19 20 18 17 16 17 3 2 4 5 7 8 1 2 3 4 6 6 10 11 8 4 3 3 4 4 2 4 5 5 2 3 8 12 11 9 9 9 8 7 8 8 8 8 7 7 7 5 5 5 3
19 16 13 19 19 19 18 13 4 2 2 3 4 4 1 5 4 3 4 4 6 9 9 5 5 5 4 4 5 7 4 5 3 4 8 11 11 10 10 9 9 9 9 8 8 8 7 6 5 6 5 4 3 4
22 6 17 19 18 17 18 4 3 5 5 5 4 3 3 1 4 3 3 3 6 9 4 3 6 5 4 4 5 4 1 3 7 8 8 11 12 11 11 10 10 9 9 9 8 7 6 5 5 5 5 5 4 4
8 11 17 23 17 9 3 2 4 6 7 4 4 5 1 3 4 4 3 5 6 5 4 1 3 5 5 5 3 5 4 6 7 9 9 10 11 11 10 11 10 9 9 8 7 6 5 4 5 3 2 4 3 5
10 11 18 27 14 6 5 4 5 3 1 2 4 3 2 3 3 4 4 3 1 1 3 2 2 3 2 2 4 7 9 9 9 9 9 10 11 11 11 10 9 8 8 8 7 4 4 0 4 3 3 2 4 4
26 24 33 27 9 5 5 4 3 4 3 3 3 4 3 4 4 3 4 2 2 2 1 1 2 3 2 3 3 8 8 9 11 11 10 9 8 10 10 9 7 8 7 5 4 1 3 3 2 2 4 6 6 6
19 15 20 14 3 3 4 3 4 3 5 3 5 4 4 3 3 3 3 1 2 2 2 2 3 4 2 4 7 8 10 10 8 9 11 11 9 8 8 6 7 5 4 4 3 4 3 3 3 2 3 3 3 4
7 11 5 5 3 4 4 3 4 4 3 5 5 3 4 3 4 3 3 2 2 3 2 3 5 7 8 9 9 9 7 8 9 10 11 12 9 8 7 6 5 4 3 3 3 2 2 1 2 2 3 2 3 2
6 3 4 4 5 4 4 2 3 2 5 5 4 4 3 3 3 4 2 1 4 1 4 6 9 9 11 11 11 10 9 11 9 9 9 7 7 6 6 6 4 4 3 3 1 2 1 4 2 3 1 3 4 3
4 5 4 3 3 4 2 3 3 4 4 3 4 4 4 4 5 4 3 3 4 5 6 10 9 10 10 12 9 8 8 8 9 8 7 7 6 5 5 4 4 2 1 3 3 2 2 2 2 4 2 4 4 4
5 5 2 4 2 4 4 5 4 3 4 4 4 3 4 4 4 4 4 5 7 7 8 9 9 9 9 9 8 7 7 7 8 9 6 5 6 5 5 4 4 4 2 3 3 3 3 2 3 4 4 4 5 6
5 4 3 2 3 3 4 5 5 5 5 4 3 4 4 4 5 4 3 5 6 7 8 8 8 8 8 8 9 8 7 6 7 7 5 4 4 4 5 5 4 4 2 1 2 3 4 3 4 5 5 5 3 4
5 4 3 2 1 4 4 4 3 3 4 4 5 6 5 5 4 4 3 3 4 6 6 6 6 7 8 9 9 8 6 5 5 7 7 6 5 5 2 2 3 5 3 1 0 2 4 4 4 4 4 4 4 4
4 4 4 3 4 3 4 4 3 3 3 1 3 3 2 4 4 4 4 2 1 6 5 5 4 7 8 9 8 8 8 8 9 9 7 6 5 5 5 5 6 7 5 3 3 2 2 2 2 2 3 4 4 4
4 3 3 5 4 5 5 4 3 3 3 3 2 3 4 4 3 2 2 1 5 7 7 7 8 8 9 8 7 7 7 7 8 8 6 4 4 4 3 4 4 3 4 4 4 4 4 3 3 4 3 4 4 4
4 3 4 4 4 4 4 5 5 4 4 4 4 5 5 4 4 1 2 3 6 6 7 8 8 8 9 9 9 8 5 4 3 0 2 3 3 7 5 4 4 3 2 1 2 4 2 3 3 4 3 3 3 4
1 1 4 4 5 5 5 4 4 5 3 4 5 6 6 5 4 5 6 5 6 7 8 8 8 7 7 7 7 7 6 4 5 6 5 6 6 6 5 4 3 2 2 1 1 1 1 3 2 3 4 5 5 5
3 4 3 4 4 4 3 0 2 3 2 3 3 4 4 3 4 4 5 5 3 6 7 7 8 7 7 7 7 7 10 8 6 6 7 6 6 6 5 4 3 2 2 2 0 0 2 4 4 5 5 6 6 7
4 4 5 5 4 5 3 2 2 4 2 3 3 2 4 5 5 4 3 6 6 6 7 8 8 8 9 9 9 9 10 9 12 11 11 10 8 6 4 3 3 3 2 1 1 2 3 4 5 5 6 6 7 8
Wind_Direction
193 190 189 187 188 185 185 194 197 194 190 188 182 189 209 214 172 210 175 191 251 276 300 302 286 292 324 316 333 356 322 15 354 8 356 5 336 360 313 46 12 13 328 32 346 336 96 355 12 39 345 36 28 31
193 189 183 191 185 186 187 187 199 194 188 186 193 181 219 233 241 194 179 194 233 276 310 322 288 284 284 294 304 305 318 341 7 332 25 296 301 329 351 44 36 44 23 6 21 53 51 34 60 33 41 57 38 39
179 167 183 197 188 188 193 175 169 204 190 180 197 187 207 228 231 185 123 136 106 283 277 242 258 27 227 232 250 277 89 357 19 34 323 303 291 346 345 35 39 63 7 57 181 80 67 67 68 55 54 52 40 30
197 190 192 191 186 188 191 185 179 201 198 178 194 195 217 235 226 216 160 151 131 251 279 293 87 231 43 230 215 234 296 337 302 307 19 292 301 356 344 333 31 8 19 354 91 130 115 72 57 53 43 30 29 40
195 196 187 185 184 189 193 195 195 196 186 179 195 201 216 223 239 255 210 184 196 249 312 317 248 87 55 191 206 215 238 262 282 293 275 275 330 334 290 320 77 359 11 320 53 29 78 80 62 47 45 36 22 19
184 189 184 182 184 188 195 192 199 189 187 183 191 210 220 232 267 170 347 200 191 167 263 273 116 156 109 194 190 199 220 247 256 282 279 269 325 319 300 320 92 87 61 18 102 82 90 98 78 53 57 33 29 30
167 178 187 182 182 186 189 197 190 186 187 180 202 207 231 252 254 183 244 32 162 129 215 261 196 120 226 158 170 183 221 285 278 272 256 285 324 280 269 297 139 106 89 71 84 124 117 45 74 56 41 38 61 48
173 180 184 182 176 185 190 191 189 178 175 187 216 214 236 278 209 159 296 140 138 112 237 263 213 162 199 175 165 188 207 228 263 274 257 265 196 199 246 127 131 136 140 96 84 78 80 87 50 37 22 28 52 46
179 180 185 188 186 178 184 174 178 171 182 188 203 209 281 149 194 154 136 151 85 264 209 200 236 155 179 100 92 186 178 236 256 242 245 256 210 224 99 153 166 161 208 128 121 114 125 103 94 48 40 38 55 46
179 188 187 189 182 176 172 170 176 170 168 171 148 179 212 199 132 104 82 140 164 196 231 242 237 142 192 172 179 196 221 240 220 206 124 261 243 121 103 102 116 125 126 183 171 168 158 110 73 58 62 54 53 48
187 189 195 189 183 176 173 175 180 168 165 169 193 215 93 149 135 173 150 185 144 202 202 230 210 158 222 188 183 225 220 320 259 140 226 210 221 136 137 118 114 111 100 65 66 75 65 69 108 104 91 81 75 67
196 194 193 194 184 175 176 174 176 179 164 192 229 98 69 193 163 184 183 172 196 214 156 186 206 158 151 243 198 209 209 201 258 140 237 248 100 138 146 138 127 110 97 89 85 85 82 81 83 90 87 81 74 74
198 193 196 189 178 175 171 165 177 191 109 225 200 174 190 169 194 204 176 190 187 162 153 161 153 120 148 188 164 190 214 230 278 225 235 50 126 138 140 132 109 95 103 104 98 98 100 95 87 89 89 81 78 65
199 194 193 188 180 174 172 171 187 163 119 238 206 197 220 182 223 192 202 181 127 144 159 157 132 154 122 179 151 233 182 227 243 239 181 127 144 138 129 126 129 111 105 106 102 94 90 91 88 76 81 87 88 79
190 188 189 185 177 176 176 174 172 133 171 242 233 212 199 137 59 82 90 109 140 158 151 140 109 169 162 173 203 204 200 231 233 288 100 127 137 137 139 131 128 124 121 118 119 117 116 116 113 104 98 99 100 97
182 179 187 174 176 174 177 164 104 117 231 262 262 262 31 172 150 162 155 141 160 149 146 181 152 173 186 187 189 210 236 227 109 88 108 131 141 136 133 132 132 135 131 125 123 130 129 135 144 123 123 119 125 122
177 188 172 172 174 177 133 98 124 175 213 224 215 265 309 15 127 102 150 127 168 165 176 171 162 182 130 199 213 217 283 76 118 116 133 133 139 139 133 132 133 138 137 135 136 138 140 133 147 168 168 150 186 123
184 159 164 167 163 106 69 182 153 186 205 203 206 140 151 346 109 101 109 159 174 194 175 180 112 196 204 196 180 128 118 113 110 117 122 124 125 132 138 133 137 137 136 137 136 141 142 172 193 171 181 147 216 201
173 188 179 164 152 134 138 166 223 163 83 128 115 113 88 93 50 95 112 140 173 99 130 179 224 221 139 74 116 128 136 138 130 122 117 121 126 124 127 127 136 142 139 151 166 170 145 308 349 329 314 279 281 300
232 208 151 156 195 158 137 136 219 140 150 123 117 133 110 93 108 104 110 136 165 136 139 226 20 51 29 97 130 139 133 134 136 136 132 129 133 138 143 156 145 139 152 139 150 202 181 221 218 303 343 349 323 316
104 132 147 174 183 74 99 133 109 128 147 97 126 142 94 130 137 145 119 111 92 168 158 79 96 97 95 118 110 121 134 150 150 147 143 142 154 142 152 135 149 165 163 176 207 143 250 297 350 345 315 320 332 305
113 189 143 172 128 109 88 25 105 107 77 130 140 132 131 145 135 120 141 134 130 90 58 131 124 141 130 127 131 134 119 119 112 116 120 138 146 156 156 153 168 166 190 186 221 234 251 319 346 295 291 310 239 287
126 59 53 60 77 70 106 253 105 114 123 144 145 124 139 141 117 152 154 88 89 104 139 123 140 131 119 117 115 117 129 135 130 126 144 139 144 145 144 152 161 165 181 168 231 192 186 40 128 285 271 248 266 269
41 55 54 68 73 102 146 104 113 111 116 157 135 122 149 133 159 218 171 132 105 149 142 147 141 136 134 140 136 135 147 127 127 131 127 139 144 142 141 135 131 118 40 104 164 164 167 214 65 233 249 279 272 292
75 33 350 89 113 137 127 133 128 127 120 148 140 145 157 176 189 190 189 141 165 161 152 156 155 155 150 134 131 117 130 142 138 133 141 153 126 134 136 132 123 105 138 166 177 208 206 256 255 272 270 264 285 297
83 34 359 100 132 159 146 138 154 150 127 145 148 120 178 185 190 168 116 139 163 160 164 166 162 154 142 145 140 144 131 125 130 127 124 142 157 162 159 164 169 157 166 294 275 247 251 225 259 273 270 247 179 278
117 111 95 18 324 124 114 83 96 120 135 153 159 173 178 189 153 87 107 38 133 150 167 170 157 155 143 136 114 114 112 92 81 107 102 81 59 26 32 167 180 79 115 117 351 302 304 302 277 265 264 277 276 271
71 22 119 87 89 25 97 82 100 102 110 14 165 151 162 24 76 56 40 38 49 114 107 117 119 117 118 124 120 119 105 103 100 104 105 89 73 75 78 76 71 76 76 57 79 67 26 359 323 286 291 301 326 318
67 54 86 63 60 62 40 37 73 61 1 303 116 103 95 59 35 38 62 122 113 119 120 114 103 107 114 114 108 109 125 133 138 147 159 139 156 131 115 120 125 119 128 113 88 61 47 12 5 346 335 312 325 310
72 349 92 72 59 64 53 351 78 80 50 37 100 126 111 93 57 329 182 184 182 154 133 130 134 136 132 130 122 109 79 74 44 126 180 165 117 122 139 134 127 122 149 155 137 129 186 229 200 215 254 278 285 318
13 85 83 71 83 76 88 105 131 113 71 63 35 87 102 118 109 43 30 25 74 111 129 130 121 127 127 135 137 136 125 93 80 69 77 97 120 125 121 111 111 127 122 138 163 278 318 272 291 303 295 309 314 291
48 38 115 107 114 132 179 92 78 86 106 97 92 124 167 146 86 80 14 332 138 109 105 120 122 110 98 79 76 68 75 108 108 108 112 112 106 107 110 107 118 120 113 127 121 348 294 314 312 320 314 312 326 321
109 86 96 112 128 157 140 161 107 119 108 94 89 42 33 18 77 81 76 11 11 96 92 88 96 97 96 94 99 98 89 82 81 84 84 88 94 101 108 101 92 87 85 42 23 331 313 315 310 326 318 318 318 320